Location: Aiyede
(8.4833°N, 4.4500°E)
Time: 13:40:50
(UTC+00:00)

Envisat - Pass Details

Date: 03 December 2020
Orbit: 764 x 766 km, 98.1° (Epoch: 18 January)

Event Time Altitude Azimuth Distance (km) Brightness Sun altitude
Rises 04:15:40 0° 42° (NE) 3,219 6.5 -20.8°
Reaches altitude 10° 04:18:52 10° 63° (ENE) 2,294 6.0 -20.1°
Maximum altitude 04:21:52 16° 100° (E) 1,918 6.1 -19.4°
Drops below altitude 10° 04:24:52 10° 137° (SE) 2,294 6.4 -18.7°
Sets 04:28:03 0° 158° (SSE) 3,221 6.9 -18.0°
